Location: Poughquag
(41.6090°N, 73.6820°W)
Time: 02:40:11
(UTC-04:00)

Vanguard 2 Rocket - Pass Details

Date: 30 May 2020
Orbit: 556 x 3324 km, 32.9° (Epoch: 06 July)

Event Time Altitude Azimuth Distance (km) Brightness Sun altitude
Rises 14:27:32 0° 209° (SSW) 3,457 10.3 62.0°
Reaches altitude 10° 14:30:10 10° 194° (SSW) 2,800 9.9 61.6°
Maximum altitude 14:35:35 24° 142° (SE) 2,499 9.4 60.7°
Drops below altitude 10° 14:43:36 10° 95° (E) 4,323 10.2 59.5°
Sets 14:48:55 0° 84° (E) 5,863 10.7 58.6°
